EW8226 Weather Reports


time (UTC)temp
C
wind
direction
speed
KPH
gust
KPH
rain 1hr
cm
rain 24hr
cm
rain mn
cm
humidity
%
barometer
mb
20260506114550 14 13 0.0 1.6 0.00 0.00 0.00 60 1010.5
20260506113050 13 316 0.0 1.6 0.00 0.00 0.00 60 1010.4
20260506111550 13 324 0.0 1.6 0.00 0.00 0.00 60 1010.5
20260506110114 13 360 0.0 1.6 0.00 0.00 0.00 61 1010.4
20260506110002 13 333 0.0 1.6 0.00 0.00 0.00 61 1010.4
20260506104615 14 355 0.0 6.4 0.00 0.00 0.00 58 1010.4
20260506104502 14 276 0.0 6.4 0.00 0.00 0.00 58 1010.3
20260506103100 14 42 0.0 3.2 0.00 0.00 0.00 57 1010.3
20260506101559 13 322 0.0 1.6 0.00 0.00 0.00 60 1010.4
20260506100058 14 5 0.0 1.6 0.00 0.00 0.00 60 1010.3
20260506094555 13 321 0.0 0.0 0.00 0.00 0.00 62 1010.2
20260506093046 13 348 0.0 0.0 0.00 0.00 0.00 61 1010.1
20260506091545 13 325 0.0 0.0 0.00 0.00 0.00 59 1010.0
20260506090045 14 355 0.0 1.6 0.00 0.00 0.00 58 1009.9
20260506084613 13 30 0.0 0.0 0.00 0.00 0.00 63 1009.8
20260506083043 13 86 0.0 1.6 0.00 0.00 0.00 68 1009.8
20260506081551 12 325 0.0 1.6 0.00 0.00 0.00 68 1009.8
20260506073039 11 360 0.0 0.0 0.00 0.00 0.00 72 1009.5
20260506071537 12 340 0.0 1.6 0.00 0.00 0.00 73 1009.5
20260506061533 10 11 0.0 1.6 0.00 0.00 0.00 82 1009.2
20260506044536 9 5 0.0 0.0 0.00 0.00 0.00 83 1008.9
20260506043027 9 360 0.0 0.0 0.00 0.00 0.00 82 1008.7
20260506041528 9 351 0.0 0.0 0.00 0.00 0.00 81 1008.7
20260506040033 9 20 0.0 0.0 0.00 0.00 0.00 81 1008.7
20260506034526 9 348 0.0 0.0 0.00 0.00 0.00 80 1008.7
20260506033027 9 321 0.0 0.0 0.00 0.00 0.00 80 1008.5
20260506031527 9 355 0.0 0.0 0.00 0.00 0.00 80 1008.6
20260506030026 10 23 0.0 0.0 0.00 0.00 0.00 80 1008.6
20260506024523 10 27 0.0 0.0 0.00 0.00 0.00 80 1008.6
20260506023036 10 31 0.0 0.0 0.00 0.00 0.00 80 1008.5
20260506021534 10 13 0.0 0.0 0.00 0.00 0.00 80 1008.5
20260506020026 10 345 0.0 1.6 0.00 0.00 0.00 80 1008.4
20260506014521 10 5 0.0 0.0 0.00 0.00 0.00 80 1008.4
20260506013027 10 61 0.0 0.0 0.00 0.00 0.00 79 1008.4
20260506011519 10 5 0.0 1.6 0.00 0.00 0.00 79 1008.5
20260506010019 10 40 0.0 0.0 0.00 0.00 0.00 79 1008.5
20260506004522 10 343 0.0 0.0 0.00 0.00 0.00 78 1008.5
20260506003017 10 5 0.0 0.0 0.00 0.00 0.00 78 1008.5
20260506001515 10 360 0.0 1.6 0.00 0.00 0.00 77 1008.5
20260506000013 10 348 0.0 0.0 0.00 0.00 0.00 77 1008.5
20260505234515 10 350 0.0 0.0 0.00 0.00 0.00 77 1008.5
20260505233012 11 308 0.0 0.0 0.00 0.00 0.00 77 1008.5
20260505231522 11 338 0.0 0.0 0.00 0.00 0.00 77 1008.5
20260505230021 11 329 0.0 0.0 0.00 0.00 0.00 77 1008.6
20260505224514 11 13 0.0 1.6 0.00 0.00 0.00 78 1008.5
20260505223008 11 348 0.0 0.0 0.00 0.00 0.00 79 1008.5
20260505221508 11 355 0.0 0.0 0.00 0.00 0.00 78 1008.5
20260505220008 11 40 0.0 0.0 0.00 0.00 0.00 79 1008.5
20260505214506 11 51 0.0 0.0 0.00 0.00 0.00 79 1008.5
20260505213014 11 5 0.0 0.0 0.00 0.00 0.00 79 1008.5
20260505211510 11 53 0.0 0.0 0.00 0.00 0.00 79 1008.5
20260505210008 12 5 0.0 0.0 0.00 0.00 0.00 79 1008.5
20260505204506 12 346 0.0 0.0 0.00 0.00 0.00 78 1008.6
20260505203003 12 309 0.0 0.0 0.00 0.00 0.00 78 1008.4
20260505201500 12 342 0.0 0.0 0.00 0.00 0.00 77 1008.3
20260505200025 12 360 0.0 1.6 0.00 0.00 0.00 77 1008.1
20260505194526 12 344 0.0 3.2 0.00 0.00 0.00 76 1008.0
20260505193030 12 348 0.0 1.6 0.00 0.00 0.00 77 1007.8
20260505191523 12 22 0.0 1.6 0.00 0.00 0.00 77 1007.7
20260505190052 12 360 0.0 1.6 0.00 0.00 0.00 77 1007.6
20260505184550 12 21 0.0 0.0 0.00 0.00 0.00 77 1007.5
20260505183049 12 19 0.0 1.6 0.00 0.00 0.00 76 1007.4
20260505181549 13 317 0.0 1.6 0.00 0.00 0.00 76 1007.3
20260505180011 13 344 0.0 1.6 0.00 0.00 0.00 76 1007.3
20260505174507 13 5 0.0 6.4 0.00 0.00 0.00 76 1007.3
20260505173005 13 321 0.0 1.6 0.00 0.00 0.00 76 1007.2
20260505171506 14 347 0.0 1.6 0.00 0.00 0.00 75 1007.2
20260505164544 13 28 0.0 0.0 0.00 0.00 0.00 76 1007.3
20260505163044 13 346 0.0 1.6 0.00 0.00 0.00 77 1007.2
20260505161541 13 337 0.0 0.0 0.00 0.00 0.00 77 1007.3
20260505153005 13 13 0.0 1.6 0.00 0.00 0.00 79 1007.4
20260505151503 14 342 0.0 1.6 0.00 0.00 0.00 78 1007.5
20260505124527 13 96 0.0 0.0 0.00 0.00 0.00 78 1008.1
20260505123026 13 37 0.0 0.0 0.00 0.00 0.00 79 1008.2
20260505121526 13 17 0.0 0.0 0.00 0.00 0.00 79 1008.3
20260505120024 13 9 0.0 1.6 0.00 0.00 0.00 79 1008.5